Location: Mahannah Oil Field
(37.4664°N, 96.6003°W)
Time: 06:53:18
(UTC+00:00)

Tiros 1 despin weight - Pass Details

Date: 21 January 2021
Orbit: 593 x 642 km, 48.2° (Epoch: 05 March)

Event Time Altitude Azimuth Distance (km) Brightness Sun altitude
Rises 01:40:32 0° 302° (WNW) 2,847 ? -24.1°
Reaches altitude 10° 01:43:16 10° 318° (NW) 1,937 ? -24.7°
Enters shadow 01:45:39 20° 348° (NNW) 1,382 ? -25.2°
